Tracking 23645 objects as of 22-Sep-2021
HD Live streaming from Space Station
objects crossing your sky now

OPS 1948

Track OPS 1948 now!
OPS 1948 is classified as:


NORAD ID: 11558
Int'l Code: 1979-086A
Perigee: 30,428.8 km
Apogee: 41,181.4 km
Inclination: 5.8 °
Period: 1,436.7 minutes
Semi major axis: 42176 km
RCS: Unknown
Launch date: October 1, 1979
Source: United States (US)
Launch site: AIR FORCE EASTERN TEST RANGE (AFETR)
aabbcc
Your satellite tracking list
Your tracking list is empty




NASA's NSSDC Master Catalog

Two Line Element Set (TLE):
1 11558U 79086A   21264.55035604 -.00000331  00000-0  00000-0 0  9991
2 11558   5.7842 356.5029 1274723  62.9534 286.1899  1.00231364  8879
Source of the keplerian elements: McCants